Location: Volkssternwarte_EN
(51.3230°N, 7.4010°E)
Time: 23:46:02
(UTC+02:00)

N. Korean satellite - Pass Details

Date: 26 September 2021
Orbit: 450 x 495 km, 97.3° (Epoch: 15 October)

Event Time Altitude Azimuth Distance (km) Brightness Sun altitude
Rises 06:34:50 0° 18° (NNE) 2,525 10.6 -8.3°
Reaches altitude 10° 06:36:57 10° 24° (NNE) 1,650 9.7 -8.0°
Maximum altitude 06:40:23 46° 99° (E) 651 7.8 -7.5°
Drops below altitude 10° 06:43:50 10° 174° (S) 1,661 9.3 -6.9°
Sets 06:45:58 0° 181° (S) 2,544 10.1 -6.6°
